ONEWEB-0713 (55175 NORAD) Tracking and Keplerian Element Data

This shows tracking and keplerian element data for the satellite.

Feedback or suggestion? Click here.




ElementValue
Catalog55175
NameONEWEB-0713
Epoch Orbit130
Epoch Day85.00001157
Epoch Year2023
RAAN256.9769
Inclination87.2377
Eccentricity0.0009439
Argument of Perigee356.2514
Mean Anonmoly75.4764
Mean Motion13.88114572
Decay Rate-0.00925124
L11 55175U 23004AM 23085.00001157 -.00925124 00000+0 -81778+0 0 9998
L22 55175 87.2377 256.9769 0009439 356.2514 75.4764 13.88114572 1301



Live tracking and technical data element details for ONEWEB-0713 (NORAD 55175). ONEWEB-0713 can be tracked NOW for your location showing map with azimuth and elevation plus other details from your city location.







IsCatalogInMostPopularTable: catalog: 55175, numindb: 14
Update: records affected: 1



GetName: 55175 ONEWEB-0713

Hit Count: updated at: Mon, 27 Mar 2023 06:17:46 GMT